Theta_e
348 344 338 337 336 335 336 335 329 322 314 313 316 317 318 318 319 319 321 322 322 321 319 318 316 315 314 315 319 324 328 329 331 334 336 337 337 338 338 338 337 337 336 336 336 336 336 336 336 336 336 336 334 332 331 329 327 324 323 324 325 326 317 315 318 311 308 307 308 314 316 315 312 310 311 311 311 313 316 318 319 317 313 313 312
349 343 338 337 336 335 336 335 330 322 315 312 316 318 318 319 320 321 324 326 326 325 323 321 320 319 320 322 325 328 330 331 334 336 337 337 337 337 337 338 337 337 336 337 337 336 336 336 336 336 336 335 333 330 328 325 322 317 313 312 311 311 310 308 309 308 308 307 311 318 321 320 316 312 312 311 312 313 314 315 314 313 311 312 311
348 342 338 337 335 335 336 335 330 323 316 312 315 318 319 320 321 322 326 328 329 329 328 325 324 323 324 326 329 332 335 335 336 337 337 337 337 337 337 337 337 336 336 336 336 335 336 335 335 335 334 333 332 329 327 324 318 314 312 309 307 307 307 307 307 308 308 309 315 319 320 319 316 313 312 312 312 312 312 312 312 312 312 311 311
346 340 338 337 335 335 335 334 331 325 318 313 314 318 319 321 323 325 328 330 331 331 331 330 329 328 329 331 334 337 337 336 336 337 338 338 337 337 337 337 337 337 336 336 335 335 335 335 335 334 333 332 330 328 327 323 315 315 315 310 307 308 307 307 308 308 309 309 314 320 321 322 322 318 313 312 312 312 312 311 312 312 311 311 311
344 339 337 336 335 335 336 335 331 327 320 313 313 317 320 322 325 327 330 332 333 334 333 333 333 333 334 335 337 337 336 336 336 336 337 337 337 337 337 337 337 336 336 336 335 335 335 334 334 333 332 331 329 328 330 325 317 317 315 309 308 308 307 308 308 308 310 311 317 323 324 323 323 320 314 312 311 312 312 312 312 312 312 312 312
340 337 336 336 335 335 335 334 332 328 321 314 312 316 320 323 325 328 332 334 336 336 336 336 336 336 337 337 337 337 336 337 336 336 337 338 338 338 337 337 337 336 336 335 335 335 334 333 332 332 330 328 328 330 332 328 323 322 317 311 310 309 309 308 308 311 312 314 321 325 324 321 319 317 314 313 313 313 313 313 313 313 313 313 314
337 336 336 336 334 335 335 335 333 330 324 315 312 315 318 323 325 327 332 336 337 338 338 337 337 337 337 337 337 337 336 337 336 337 338 338 338 338 338 337 337 337 336 336 336 335 334 333 332 332 329 326 327 329 330 328 326 325 318 313 311 310 311 311 312 313 313 314 316 321 325 325 322 318 316 317 316 314 313 313 313 313 313 313 313
336 336 336 335 334 335 335 335 333 331 326 317 313 313 317 321 324 326 330 336 337 338 338 337 336 337 337 337 337 337 336 336 336 337 338 338 338 338 338 338 338 337 336 336 336 335 334 333 332 331 328 324 323 324 326 328 327 324 317 314 312 311 312 312 313 313 312 311 313 320 325 327 325 320 316 316 315 314 314 313 313 313 313 313 312
337 337 336 335 334 335 335 335 333 332 328 320 314 312 315 319 323 325 328 334 336 337 337 336 336 337 337 337 337 336 336 336 336 336 337 337 337 336 335 334 333 333 334 335 335 334 332 330 329 328 325 322 320 320 323 325 325 319 315 314 313 312 312 312 312 312 312 311 311 315 320 324 326 320 314 313 313 314 313 315 315 313 313 313 313
338 336 335 334 334 335 335 334 334 333 330 322 316 312 313 316 321 324 326 332 335 337 337 336 336 337 336 337 337 336 336 336 335 335 335 334 334 332 328 326 325 324 326 328 329 328 327 325 323 323 324 322 321 320 321 322 320 316 314 314 314 313 312 312 312 311 310 311 311 311 313 318 320 317 314 314 314 314 313 315 315 313 313 312 313
340 336 334 334 334 335 335 335 334 333 331 325 318 313 312 314 318 323 326 332 335 336 336 336 336 336 336 337 336 336 336 336 334 334 333 331 330 328 325 323 321 318 316 319 321 322 322 318 314 319 324 324 321 320 320 320 318 316 316 314 313 312 312 311 311 311 311 310 311 311 311 312 313 313 314 313 313 313 313 313 313 312 312 312 312
339 335 334 334 334 335 335 335 334 333 332 327 321 315 311 312 315 321 327 332 333 334 335 335 336 336 336 337 336 336 336 335 334 332 331 330 329 326 323 321 317 313 311 312 315 316 315 311 308 314 324 325 322 320 321 321 319 318 317 315 313 312 312 311 311 311 311 311 311 311 311 312 312 313 313 313 313 313 313 313 313 312 311 311 311
336 334 335 335 335 335 335 335 334 333 332 329 324 317 312 311 313 317 324 329 332 333 334 334 334 335 336 336 336 336 336 335 334 332 332 332 330 325 320 316 312 309 309 310 311 311 309 308 307 313 323 325 321 320 321 321 319 319 318 316 314 313 312 311 311 311 311 311 311 311 311 312 312 312 313 313 313 312 313 313 312 312 311 311 311
334 333 335 336 335 335 335 335 334 333 333 331 326 319 314 311 311 314 318 323 329 332 333 333 333 334 334 335 335 335 335 335 333 332 332 331 329 323 318 313 309 309 309 309 309 308 308 307 308 314 323 324 322 321 321 321 321 321 319 317 315 314 313 312 312 311 311 311 311 312 311 312 312 312 312 313 313 313 312 312 312 312 311 311 310
334 332 334 334 334 334 335 335 334 334 333 331 327 321 316 312 310 311 314 319 327 331 331 332 332 332 332 333 333 333 333 333 332 331 328 327 324 319 315 312 309 308 308 309 308 308 308 307 310 318 324 323 322 321 321 322 323 323 320 318 317 315 315 314 313 312 312 312 311 312 312 312 312 312 312 313 313 312 312 312 313 312 311 311 310
334 332 332 333 333 334 335 334 334 334 333 331 328 322 317 314 311 310 313 319 325 329 331 332 331 331 331 332 332 332 331 331 330 328 325 322 320 316 313 312 310 308 308 308 308 308 308 308 313 321 324 323 323 321 322 324 324 324 322 320 319 317 316 315 315 314 313 312 312 311 311 311 311 312 312 312 312 312 313 313 313 312 311 311 311
335 333 333 333 333 334 334 334 334 333 332 330 327 322 318 314 310 310 313 317 324 329 331 332 332 331 331 331 330 329 329 328 326 324 324 320 316 314 313 313 311 308 308 308 308 308 308 309 315 321 323 323 323 323 323 324 325 325 323 322 321 319 318 317 316 316 315 314 312 311 310 310 310 311 311 312 312 312 313 313 313 312 312 312 311
336 335 334 334 333 334 335 335 334 333 331 329 325 321 317 313 310 310 312 315 323 331 331 331 332 331 330 330 329 329 328 326 324 323 322 318 313 313 313 313 312 309 308 308 308 308 308 311 317 322 324 323 323 324 325 325 326 326 324 323 323 321 320 319 318 317 316 315 314 312 311 310 310 311 311 312 312 313 313 314 313 313 313 312 311
336 336 335 334 334 334 334 334 333 331 329 326 322 319 315 312 310 310 312 314 322 330 331 329 328 327 327 328 328 327 326 323 323 322 321 317 313 312 313 314 313 311 309 308 308 308 309 313 318 323 325 324 325 325 325 326 326 327 325 324 324 323 322 322 321 320 319 318 317 315 314 312 311 311 312 312 313 313 315 316 315 314 313 312 311
337 337 336 335 334 333 333 332 331 328 325 322 319 315 312 311 310 310 312 314 322 328 328 326 326 326 326 325 322 320 320 319 320 321 320 318 314 313 313 314 314 313 311 309 308 309 311 314 319 323 325 326 327 327 326 326 326 326 325 325 325 324 324 324 323 323 322 321 320 319 318 316 314 312 312 313 314 315 316 317 317 315 312 312 311
337 337 336 334 332 331 331 329 327 324 321 318 315 312 311 311 310 310 311 313 320 324 326 327 327 326 323 319 315 314 316 316 318 319 320 320 318 316 315 315 315 315 314 312 309 308 311 315 319 323 325 327 328 329 329 328 327 327 325 325 325 324 325 325 323 323 324 324 323 323 322 319 317 315 314 314 315 316 317 318 318 315 312 311 311
337 336 334 332 329 328 327 324 321 318 316 314 312 312 312 311 310 311 312 314 318 322 327 328 324 321 316 314 314 316 317 318 320 318 319 320 319 318 317 318 317 317 317 315 313 309 310 314 319 323 325 327 329 330 330 330 329 329 327 326 326 325 326 326 324 324 324 325 325 326 325 322 320 318 318 318 318 318 318 318 318 316 313 312 311
336 334 332 328 325 323 321 319 317 314 314 313 312 312 311 310 310 313 314 318 321 320 323 322 316 315 314 316 320 323 324 326 327 323 321 321 320 319 319 319 319 320 320 319 317 314 311 311 316 322 325 327 328 330 330 330 330 330 329 328 328 326 326 326 325 324 325 326 326 326 326 326 324 323 322 321 321 320 320 319 318 317 315 313 311
333 330 325 322 320 319 317 315 315 314 314 313 313 312 311 310 311 321 328 330 328 319 318 317 315 316 318 323 327 329 329 330 331 329 329 328 326 325 324 322 321 320 320 320 320 320 317 313 312 317 323 327 328 329 330 331 330 331 330 330 329 328 328 328 326 325 326 327 327 327 327 328 327 326 326 324 323 321 321 320 318 318 315 313 311
327 323 319 318 318 317 315 315 315 315 314 313 314 312 312 312 313 325 335 335 328 319 317 318 319 323 326 329 330 331 331 331 332 331 332 331 329 329 329 328 327 324 321 319 319 320 322 320 316 313 316 324 329 330 330 331 331 331 331 330 330 329 329 329 328 327 328 328 328 329 328 329 328 328 328 327 325 322 322 320 319 318 316 313 311
320 318 317 317 317 316 316 316 315 314 313 313 314 313 313 314 314 320 325 325 321 317 318 321 325 329 331 332 332 332 332 332 332 332 332 331 330 330 330 330 330 330 328 325 321 319 320 322 322 318 314 316 325 330 330 331 331 331 331 330 330 330 329 329 329 329 329 330 330 330 330 330 330 329 330 329 327 325 323 321 319 318 315 313 312
318 318 317 317 317 317 317 316 315 315 315 316 315 316 316 318 320 320 321 321 320 318 319 322 326 329 330 332 332 333 333 333 332 332 332 332 332 332 332 331 331 331 330 330 328 323 320 320 322 324 320 314 316 324 329 331 331 331 331 330 330 329 329 328 328 329 330 331 330 330 330 331 330 330 330 329 329 327 325 321 318 316 315 313 313
318 318 318 318 319 319 318 318 318 319 320 320 320 321 323 324 325 324 325 324 323 323 323 325 327 329 331 332 332 332 332 332 333 333 333 333 333 332 332 332 332 332 331 331 331 329 324 320 320 322 324 321 316 317 323 329 331 331 331 331 330 329 329 328 328 329 329 330 331 330 331 331 331 330 330 329 330 329 327 323 318 315 314 313 313
318 319 319 319 322 323 321 320 321 323 323 323 324 325 327 327 327 328 330 330 329 330 331 331 332 332 333 333 333 333 332 331 332 332 332 332 332 332 331 332 332 331 331 331 331 332 331 327 323 320 321 324 322 318 318 322 327 329 330 330 329 329 328 327 329 329 329 330 330 331 331 330 330 330 330 330 330 330 329 326 321 316 314 313 313
319 320 320 321 326 327 324 324 325 326 326 326 327 328 329 330 330 332 334 334 334 334 334 334 334 334 334 333 333 332 332 331 331 330 331 330 330 329 329 330 330 330 330 331 330 331 332 331 329 325 321 320 322 322 320 320 322 325 327 327 327 327 326 325 327 330 330 330 331 330 331 330 330 330 330 330 330 330 330 327 323 318 314 313 313
320 320 321 325 330 331 329 330 330 331 332 331 331 331 333 334 334 335 336 335 335 335 335 334 334 334 333 333 333 332 332 332 330 330 329 328 328 328 328 328 328 328 328 329 329 329 330 331 331 330 326 322 321 321 322 322 322 323 324 325 325 325 323 321 324 329 331 332 331 331 331 331 330 330 330 330 330 330 330 328 324 318 316 313 313
321 321 323 328 332 334 335 336 335 335 336 335 335 334 335 336 335 335 336 336 336 335 334 334 333 332 331 331 332 331 331 330 330 329 329 328 328 328 327 328 328 328 327 327 327 328 328 329 330 330 330 329 327 325 323 323 323 324 325 325 326 325 324 324 327 331 332 333 332 332 331 331 331 331 330 330 330 330 330 329 325 320 317 315 313
326 325 327 332 336 336 337 338 337 336 336 336 336 336 336 336 336 336 336 336 335 334 334 333 332 331 330 330 331 330 330 329 330 330 330 330 329 329 328 328 328 328 328 327 327 327 327 328 328 329 330 330 330 330 328 327 327 327 327 328 328 328 327 327 329 330 331 331 331 331 330 330 331 331 331 331 330 330 330 330 328 322 318 316 315
333 332 333 336 338 338 338 338 337 337 336 336 336 336 336 336 336 335 335 334 333 332 331 331 331 330 330 330 330 330 330 330 330 331 331 330 330 330 330 330 330 330 329 329 328 328 327 327 327 327 328 328 329 330 329 329 329 329 329 329 329 329 328 328 328 328 328 329 329 329 328 328 330 331 331 331 330 330 330 330 329 325 320 317 316
338 338 338 339 339 338 338 338 337 337 336 336 336 336 335 335 335 335 334 333 332 331 331 331 331 331 331 330 330 330 330 329 330 330 331 331 331 331 331 331 331 330 330 330 329 329 329 328 327 327 327 327 327 327 327 327 327 327 327 327 327 327 327 327 328 328 328 328 328 328 328 328 329 330 331 331 330 330 330 329 329 327 321 317 317
340 340 339 339 339 338 337 337 337 336 336 335 334 335 335 335 335 334 333 333 333 333 332 332 332 331 331 331 329 328 328 328 329 329 330 330 330 331 331 331 330 330 330 330 330 330 330 330 329 328 328 327 327 327 327 327 327 327 327 327 327 326 326 326 326 327 328 328 328 327 328 329 329 329 330 331 330 330 330 329 330 328 322 317 318
340 339 339 338 338 337 336 336 336 335 335 334 333 333 334 334 334 333 332 333 334 334 333 332 332 332 332 332 330 329 328 328 328 328 329 329 329 330 330 330 331 331 331 331 331 331 331 330 330 330 329 329 329 329 328 328 329 328 329 328 328 328 327 327 326 327 327 326 326 326 327 329 329 330 330 331 331 331 330 329 329 327 323 319 318
338 338 338 337 336 336 335 335 335 334 333 333 333 333 334 334 333 332 332 333 333 333 332 333 333 333 333 332 331 331 330 329 329 329 329 329 329 329 330 330 330 331 331 331 332 332 331 331 331 331 330 330 330 330 330 330 330 329 330 329 329 329 329 329 329 328 328 328 328 327 327 327 329 330 330 331 331 331 331 329 329 327 324 322 318
337 338 336 335 335 335 334 334 334 334 333 333 333 333 333 333 333 333 333 333 333 333 333 333 334 334 333 333 332 332 331 331 330 330 330 330 330 330 330 330 329 330 330 331 332 332 332 332 330 330 329 329 329 330 330 330 330 330 330 330 330 330 330 329 329 329 329 329 329 329 329 328 328 329 329 331 331 331 331 329 329 328 327 326 322
338 339 336 334 335 334 335 335 334 334 334 334 333 333 334 334 333 333 333 333 332 333 334 334 334 334 333 333 332 332 332 331 331 330 330 330 330 330 330 330 329 329 330 330 331 331 332 332 331 331 330 330 330 330 330 330 330 330 329 329 329 329 328 328 328 328 328 328 328 328 328 328 328 328 328 329 331 331 331 330 330 329 327 327 326
336 337 335 334 334 334 334 335 335 334 334 334 334 333 334 334 333 332 332 333 333 333 333 333 333 333 332 332 331 331 331 331 331 330 330 330 330 330 330 330 330 330 330 330 330 331 332 332 332 332 331 331 331 331 331 331 331 330 330 329 328 327 327 328 327 327 328 328 328 327 327 328 328 328 328 329 329 330 331 330 330 329 328 328 328
335 336 335 334 334 333 333 334 333 334 334 334 333 332 332 333 333 332 332 333 333 332 331 331 331 332 332 331 330 331 331 331 331 331 331 331 331 331 330 330 330 330 331 331 331 332 332 332 332 332 331 331 331 331 331 331 331 331 331 330 330 330 328 327 328 328 328 328 328 328 328 328 328 328 328 329 329 329 330 330 330 330 329 329 328
336 337 336 334 334 333 333 334 333 334 334 333 332 332 332 332 333 332 332 333 332 331 331 332 332 332 332 332 331 331 331 331 331 331 331 331 330 330 331 330 331 331 331 331 332 332 332 332 332 331 331 331 331 331 331 331 331 330 331 330 330 330 329 328 329 329 327 327 327 327 328 328 328 328 328 329 329 329 329 329 330 331 330 329 328
335 335 335 335 335 334 334 334 333 333 333 332 332 332 332 332 332 332 332 332 332 332 332 332 332 332 332 332 331 330 330 329 329 330 330 330 330 330 330 331 331 331 331 332 332 331 332 331 331 331 330 330 331 330 331 331 331 330 330 330 330 330 330 330 330 328 326 326 325 326 326 326 327 328 328 329 328 328 328 329 329 330 330 330 329
334 334 335 335 335 334 333 333 332 332 332 331 331 330 330 331 331 332 333 332 332 332 332 332 332 331 330 330 330 329 329 329 328 328 328 328 328 329 329 329 330 330 330 331 330 330 330 330 330 329 329 329 330 330 329 330 330 330 329 329 328 329 329 329 328 328 327 326 326 326 326 326 326 327 328 328 328 328 327 328 329 329 329 330 330
335 335 335 335 334 333 333 332 332 331 331 330 330 329 329 329 328 329 330 331 331 331 331 331 330 330 329 329 329 329 329 328 328 328 327 327 327 327 327 328 328 328 329 329 329 329 328 328 328 327 328 328 329 328 328 328 328 329 329 328 327 328 328 328 328 328 327 325 325 326 327 326 326 326 328 328 328 328 327 327 328 329 329 329 330
334 334 334 334 333 332 330 330 330 330 330 329 329 328 328 327 327 327 327 328 329 330 330 329 330 329 329 329 329 329 328 328 328 327 326 326 325 326 326 326 327 326 327 327 327 327 327 326 326 326 327 327 327 327 328 327 327 328 328 327 327 328 328 327 327 327 327 326 326 326 326 326 326 326 327 327 328 328 328 327 328 328 329 329 329
333 333 333 331 330 330 330 330 329 329 329 328 328 328 327 326 326 325 325 326 327 328 328 328 329 329 329 329 328 328 328 327 327 326 325 325 324 324 324 323 324 324 324 324 324 324 324 324 325 325 325 325 326 326 327 327 327 327 327 326 327 327 327 326 325 327 327 327 327 327 326 326 326 326 326 326 327 327 327 327 328 328 329 329 329
331 331 331 330 330 330 329 328 327 327 327 327 326 326 325 325 324 324 324 325 325 326 327 327 327 327 327 328 328 327 327 326 326 325 324 323 322 322 321 321 321 321 321 321 322 322 322 322 322 323 323 323 324 325 326 326 326 326 326 326 326 326 326 325 326 327 327 326 326 327 327 326 326 326 326 325 325 325 325 326 327 328 328 329 329
331 330 330 329 328 328 327 326 326 325 325 325 324 324 323 323 323 323 323 323 323 324 325 325 325 325 326 326 326 325 324 324 323 322 321 321 320 320 320 320 319 319 319 319 319 319 320 320 320 321 321 322 323 323 324 325 325 325 325 325 325 325 325 325 326 326 326 325 326 326 326 326 326 326 325 325 325 324 324 325 326 327 328 328 329
329 329 328 327 327 326 324 324 324 324 323 323 322 322 322 322 322 322 322 322 322 322 323 323 323 324 324 324 323 321 320 320 319 319 319 318 318 318 317 317 317 317 317 317 317 317 316 317 317 318 319 320 321 322 322 323 323 324 324 325 324 324 325 325 325 325 325 326 326 326 327 327 326 326 325 326 326 325 323 324 326 328 328 328 329
Wind_Speed
21 21 19 18 15 14 11 9 7 7 8 10 12 12 13 15 17 18 19 19 18 17 17 16 16 16 16 17 17 17 16 16 17 17 16 15 14 13 13 13 13 12 12 12 12 12 12 12 13 12 12 11 10 9 9 8 7 7 6 5 3 2 4 7 8 10 12 12 13 15 15 14 14 15 17 18 19 19 17 16 14 12 13 13 12
22 22 21 18 16 14 12 10 7 7 8 10 12 12 13 15 17 18 19 18 17 17 16 16 16 17 17 17 17 16 15 15 15 15 15 14 14 13 13 13 13 12 12 12 12 12 12 11 12 11 10 10 9 9 8 8 7 7 7 6 5 4 5 7 7 10 13 12 14 17 18 17 17 18 19 20 20 19 17 16 14 13 14 14 13
23 24 22 18 17 15 12 10 8 7 7 9 12 12 12 14 16 17 18 17 16 16 15 15 16 16 16 16 15 14 13 14 15 14 14 14 13 13 13 12 12 12 11 11 11 11 11 11 11 10 9 9 9 9 8 7 7 8 9 9 8 7 8 8 9 12 15 13 16 20 19 20 19 20 20 20 20 18 17 16 15 15 15 15 14
24 24 22 19 17 15 13 10 8 7 7 9 11 12 11 13 15 16 17 16 15 15 15 14 15 15 15 14 14 14 13 13 14 14 13 13 13 13 12 12 12 11 10 10 10 10 10 10 10 10 9 8 8 8 7 7 7 9 11 11 10 9 9 10 12 15 16 16 19 20 18 18 18 19 19 18 19 18 17 17 17 17 16 16 15
24 24 21 19 17 15 13 11 9 7 7 9 11 12 11 12 13 15 15 15 14 14 14 13 14 14 14 14 13 13 12 12 13 13 13 12 12 12 12 11 10 10 10 10 9 10 9 9 9 8 7 7 8 7 7 7 7 10 12 13 12 11 12 13 15 17 17 18 19 18 17 16 16 17 17 16 17 18 17 17 17 16 16 16 15
23 23 21 19 18 16 14 12 9 7 7 9 10 11 11 11 12 13 14 14 13 13 13 13 13 13 13 13 13 13 12 12 12 12 12 12 11 11 11 11 10 9 9 9 8 9 8 8 7 7 6 7 7 7 7 8 9 10 13 14 14 14 13 15 17 17 17 18 18 16 15 15 14 15 15 15 16 17 17 17 16 16 16 15 15
23 23 21 20 19 17 15 13 10 8 7 8 10 11 11 11 11 12 13 13 13 13 13 13 13 13 13 12 12 12 12 11 11 11 11 11 10 11 11 10 9 9 9 8 7 7 7 6 6 6 5 5 6 6 6 7 9 9 12 14 14 15 15 16 16 17 17 17 17 14 13 13 13 13 14 14 14 15 16 15 15 15 14 14 14
22 22 21 20 19 18 16 14 11 9 7 8 9 10 11 11 11 11 12 13 13 13 13 13 13 13 12 12 12 11 11 11 11 10 10 10 9 9 10 9 8 8 7 6 5 5 5 5 4 4 4 3 3 3 3 6 7 7 11 13 15 16 16 15 15 15 15 15 15 13 11 11 12 12 13 13 13 14 14 14 14 13 12 12 13
21 21 22 20 19 18 17 15 12 9 7 8 8 10 11 11 11 11 11 12 13 13 13 13 13 13 12 12 11 11 11 10 10 9 9 8 8 8 7 6 5 4 4 4 4 3 3 2 2 3 3 2 2 3 5 6 6 8 11 13 15 16 16 15 14 14 13 13 14 13 12 11 11 11 12 13 13 13 12 12 12 12 12 11 11
18 20 21 20 20 19 18 15 13 10 7 7 8 9 10 10 11 11 11 12 13 13 13 13 13 11 11 11 10 10 10 9 9 8 7 7 6 5 5 4 3 2 2 3 3 3 2 2 1 2 3 2 3 6 8 8 7 9 11 13 15 16 16 14 13 13 13 13 13 13 12 11 11 10 11 12 12 12 12 12 12 12 11 11 11
16 19 20 19 20 19 18 15 13 10 8 7 7 8 9 10 10 10 11 12 13 13 13 13 12 11 10 10 9 9 9 8 8 7 6 6 5 4 4 4 3 2 1 2 2 3 2 1 1 3 4 2 4 9 10 10 9 10 11 12 14 15 15 14 13 12 12 12 12 12 11 11 11 10 11 12 12 12 12 12 11 11 10 10 10
16 19 19 19 19 18 17 15 12 10 8 7 7 7 8 9 9 10 11 12 13 12 12 12 11 10 10 9 8 8 7 7 7 6 6 5 4 4 4 4 3 2 2 2 2 3 3 3 3 4 5 3 4 9 11 10 9 10 11 12 13 14 14 13 12 12 12 11 11 11 10 10 11 10 10 11 11 11 11 11 10 10 9 8 8
17 19 19 18 19 17 16 14 12 10 9 7 7 7 8 9 9 10 10 11 13 13 12 12 10 9 9 8 8 7 6 6 5 4 4 4 4 4 4 4 4 3 3 3 3 3 4 4 4 6 6 3 4 9 10 10 9 10 11 12 13 13 13 12 12 12 12 12 11 10 10 10 10 10 10 10 10 10 10 10 10 9 8 8 7
17 19 18 16 17 16 14 13 11 10 9 7 6 7 7 8 9 9 9 10 12 12 11 11 10 8 8 7 6 5 5 4 3 3 3 3 4 5 5 5 5 4 4 4 4 4 4 4 5 7 6 4 4 8 10 9 9 10 11 12 13 13 12 11 11 11 11 11 10 10 10 10 9 9 9 9 10 10 10 10 10 9 8 8 7
16 17 16 15 15 15 14 13 11 10 8 7 6 6 7 7 8 8 8 10 11 11 10 10 9 8 8 6 5 4 4 3 3 3 4 4 5 5 6 6 6 5 5 5 5 5 4 5 7 8 6 3 4 6 8 9 9 9 10 11 12 12 12 11 11 11 11 10 10 10 10 9 9 9 8 9 10 10 11 10 10 9 8 8 7
16 15 15 15 15 16 15 14 12 10 9 8 6 6 6 7 7 8 9 10 11 11 10 9 8 8 7 6 5 4 3 3 2 3 4 5 6 6 7 7 7 6 5 5 5 4 4 5 8 8 6 4 3 5 7 8 8 9 9 10 11 11 11 11 11 11 11 11 10 10 10 9 9 9 8 9 9 10 11 10 10 9 9 8 7
15 16 16 16 16 16 16 14 13 11 9 8 6 6 6 7 7 9 10 10 12 12 10 9 8 7 7 5 5 4 3 2 3 4 5 6 7 7 7 7 7 7 5 5 5 4 4 6 7 7 5 4 3 3 5 7 7 8 8 9 10 10 10 10 10 11 11 10 10 10 10 10 9 9 9 9 9 10 10 10 9 9 9 8 7
16 16 16 16 15 16 15 14 13 11 10 8 7 7 6 7 7 9 10 10 13 13 10 9 9 8 7 5 5 4 2 3 5 6 6 6 7 7 7 7 7 7 6 5 4 4 5 7 7 6 5 4 3 2 3 5 5 6 7 7 8 9 9 9 10 10 10 10 10 10 10 10 9 9 10 9 9 9 10 10 9 9 9 8 7
15 15 15 15 15 15 15 13 12 11 10 8 8 7 7 7 8 9 9 10 13 12 10 9 8 7 7 5 5 4 4 5 6 6 7 7 7 6 6 7 7 7 6 5 4 4 5 7 7 6 5 4 2 1 1 3 3 4 5 5 7 7 8 9 9 9 9 9 10 10 10 10 9 9 9 9 9 9 9 10 10 9 9 8 8
14 14 12 13 14 14 13 12 12 11 10 8 8 7 7 8 9 10 10 11 12 11 10 8 7 6 5 4 5 6 6 7 7 7 7 7 7 6 6 6 6 7 7 6 4 3 5 7 7 7 6 5 4 2 1 1 1 2 3 3 5 6 7 8 8 9 9 9 9 10 9 9 9 9 9 9 9 9 10 10 10 9 8 8 9
13 13 12 12 13 13 12 11 11 10 10 8 8 7 7 9 10 10 10 10 10 10 8 6 6 5 4 5 7 8 9 9 9 8 7 6 6 6 6 6 5 6 6 6 5 2 4 7 7 7 7 7 6 4 3 2 2 1 2 2 3 4 5 6 7 8 8 8 9 10 9 9 9 9 9 9 9 9 10 10 10 9 7 8 8
13 13 12 13 13 13 12 11 11 10 9 8 8 7 7 9 9 9 9 9 8 9 7 6 5 5 6 8 9 10 10 10 10 9 8 7 6 6 5 5 5 5 5 6 5 3 2 6 8 8 9 8 8 6 5 4 3 2 2 2 2 3 3 4 5 6 6 7 8 9 9 9 9 9 10 10 11 10 10 10 9 8 7 7 7
13 13 13 14 13 13 12 10 10 9 9 8 7 7 8 9 9 8 7 7 5 6 6 5 6 8 9 10 10 9 9 9 8 8 8 7 7 6 5 5 4 4 4 4 4 3 1 4 8 10 10 9 9 8 7 5 5 4 3 3 3 2 2 3 4 5 5 6 6 7 8 9 9 9 10 11 11 11 10 9 9 8 7 7 7
13 14 14 14 13 12 11 10 10 9 8 8 7 8 8 9 9 8 7 4 1 3 5 6 8 10 10 9 8 7 7 7 6 6 5 5 5 5 5 4 4 3 3 2 2 2 1 2 5 10 12 12 11 10 9 7 6 6 5 4 4 4 4 4 5 5 4 5 6 7 7 8 9 10 10 11 11 12 12 10 8 8 7 7 7
15 15 15 15 13 12 10 10 9 8 8 7 8 8 8 8 9 10 8 4 1 4 7 8 10 10 9 7 7 6 5 5 5 4 3 3 3 3 3 3 3 2 2 1 1 1 1 1 2 6 11 13 14 13 11 10 9 7 6 6 6 6 6 6 6 6 5 6 6 6 7 7 8 9 10 10 11 12 12 10 8 8 7 6 6
16 16 16 15 13 12 10 9 9 9 9 8 9 9 9 9 9 9 8 6 6 8 8 9 9 8 7 6 5 5 5 4 3 3 2 2 1 1 1 2 2 1 0 0 1 2 2 3 3 4 7 11 15 15 14 12 11 10 9 8 8 8 8 8 8 7 7 7 7 7 7 7 8 8 9 9 10 11 11 11 9 9 7 6 7
17 16 15 14 13 11 10 10 10 10 10 10 10 10 10 10 10 9 8 8 9 9 9 8 7 5 5 4 3 3 3 2 2 2 2 2 1 1 1 1 2 2 2 2 2 2 3 4 5 5 5 8 12 16 16 15 14 13 12 11 11 10 10 9 9 9 8 8 9 8 8 8 8 8 9 9 10 11 11 10 9 9 8 7 6
17 16 15 13 13 11 10 11 11 11 11 11 11 11 11 10 9 9 9 9 9 9 9 7 5 3 2 1 1 1 1 1 2 3 3 3 3 2 3 4 4 4 3 4 4 4 4 4 6 6 6 7 9 13 17 18 17 16 15 14 13 13 12 11 10 10 10 10 10 10 10 9 8 9 9 9 9 10 11 10 9 9 9 8 7
16 16 14 13 12 11 11 12 12 12 12 11 11 11 10 9 8 8 8 7 7 7 6 5 3 2 0 1 1 2 2 3 3 4 4 4 5 5 5 6 5 5 5 4 5 5 5 5 5 7 8 9 9 11 14 17 19 19 18 17 17 16 15 14 13 12 11 11 11 11 11 10 9 9 9 9 9 9 10 10 9 9 9 8 8
16 15 13 13 11 11 12 13 12 12 11 11 11 10 9 7 7 6 5 4 4 4 3 3 2 0 1 2 2 3 3 4 4 4 4 5 6 6 7 7 6 6 6 5 6 6 7 7 6 6 7 9 11 11 13 15 18 20 20 20 19 18 17 16 16 15 14 13 13 13 13 13 12 11 10 10 10 9 9 9 9 9 9 8 9
16 15 13 13 11 11 12 11 11 10 10 10 9 9 7 5 5 5 4 3 2 2 2 1 1 1 2 2 2 3 4 5 5 4 4 5 5 6 6 6 6 7 6 6 6 6 7 8 8 8 7 8 10 11 13 14 16 18 20 20 21 21 20 19 18 18 17 16 16 15 15 15 15 14 13 12 11 10 9 9 9 9 9 9 9
15 14 14 12 11 11 10 10 9 9 9 8 7 7 6 4 4 4 3 1 0 0 1 1 1 1 2 2 2 3 4 4 4 4 4 4 4 5 5 5 6 6 7 7 6 7 7 8 9 9 9 9 9 10 12 13 14 16 17 19 20 21 21 21 21 21 20 19 18 18 18 18 18 17 16 14 13 12 11 10 9 9 9 10 10
13 14 14 12 11 10 10 9 8 8 8 7 7 7 6 4 3 3 2 1 1 1 1 1 2 2 2 1 2 3 3 3 3 3 3 3 4 4 5 5 5 5 6 6 7 7 7 7 8 9 10 10 10 10 11 12 14 15 16 18 19 20 21 22 22 22 22 22 21 21 21 20 19 19 18 17 15 14 13 11 11 10 10 10 11
13 13 13 12 11 9 9 8 8 8 7 7 7 6 5 4 3 3 2 1 1 1 1 1 1 2 2 2 2 2 3 3 3 3 2 2 3 4 5 5 6 6 6 6 7 7 7 7 8 9 9 10 10 11 12 13 14 15 16 18 19 19 20 21 21 22 22 22 22 22 22 22 21 20 20 20 18 16 15 13 12 12 12 11 11
13 12 12 11 10 9 8 8 8 7 6 6 7 6 5 4 3 3 2 1 0 1 1 1 1 2 2 2 2 3 3 3 2 2 2 3 3 4 5 6 7 7 7 7 7 7 8 8 8 9 9 10 11 12 13 14 15 16 17 18 18 19 20 21 21 21 21 21 21 21 21 21 22 21 22 22 21 19 17 15 14 14 13 12 12
12 12 12 11 10 9 8 8 9 7 6 6 6 6 5 4 3 3 2 1 1 1 1 1 2 3 3 3 3 3 3 3 3 2 3 4 5 6 7 7 8 8 8 8 8 8 9 9 9 10 10 11 12 13 13 14 16 16 17 17 18 19 20 20 20 21 21 21 21 20 20 20 20 21 22 23 23 22 19 17 17 16 15 13 13
13 13 12 12 11 11 10 9 8 7 6 6 6 6 5 4 3 3 2 2 2 2 2 2 3 4 4 4 3 3 3 3 3 4 4 5 7 8 8 8 8 9 9 9 9 10 10 10 11 11 12 12 13 13 14 15 16 17 17 17 18 18 19 19 20 20 21 22 22 21 21 20 20 20 20 23 24 24 24 21 20 19 17 15 15
13 13 13 13 13 12 12 10 9 7 6 5 5 5 4 3 2 2 2 2 3 2 3 3 4 4 5 5 4 4 4 4 5 5 6 7 8 8 8 8 9 9 9 9 9 10 11 12 12 12 12 13 14 14 15 16 17 17 17 17 17 17 18 19 20 21 21 21 21 21 21 21 20 20 20 21 23 25 25 23 21 21 19 17 17
14 13 12 14 13 12 11 10 8 7 5 5 4 4 3 2 2 2 1 2 2 2 3 4 5 6 7 7 6 6 5 6 6 7 7 7 8 8 8 8 9 9 9 9 9 9 9 10 11 11 11 12 13 14 15 16 16 17 17 17 17 17 17 18 19 20 21 20 20 20 21 21 21 21 21 21 22 24 25 24 22 23 22 20 19
16 14 13 14 12 11 10 8 8 6 5 5 4 3 2 1 1 1 1 3 4 5 5 6 6 7 7 6 6 6 6 6 7 7 8 8 9 9 9 9 9 9 10 10 9 9 9 10 12 12 12 12 12 13 13 14 15 16 17 17 16 16 16 17 17 18 18 18 18 18 18 19 20 21 22 22 22 24 25 25 24 24 23 22 21
15 13 13 13 11 10 9 8 8 6 6 5 3 2 2 1 1 3 3 5 6 6 7 7 7 8 7 7 6 6 6 6 6 7 8 9 10 10 11 11 11 11 11 11 11 11 11 12 13 13 14 14 13 12 13 14 15 16 17 18 18 18 16 15 16 16 15 14 15 15 16 17 18 19 21 22 23 24 25 25 25 25 25 24 23
13 11 11 11 9 7 6 6 6 5 6 5 3 2 1 1 3 5 6 5 7 8 7 7 8 8 7 8 8 6 6 6 6 7 7 8 9 10 11 12 12 12 11 11 11 11 11 12 13 14 15 15 14 14 14 14 15 15 18 21 19 17 18 19 17 15 15 16 17 18 17 17 16 15 17 19 21 23 25 25 26 27 26 25 25
13 11 10 9 8 6 7 9 7 7 7 4 1 2 4 4 5 7 7 7 8 9 7 7 6 6 5 7 6 5 6 6 7 8 8 8 8 9 10 11 12 11 10 10 10 10 10 11 12 13 14 14 14 15 12 11 14 15 15 17 17 17 20 19 14 16 21 22 21 20 19 19 17 16 17 19 20 22 23 25 27 28 28 26 26
11 10 10 10 10 10 10 8 5 5 4 1 2 4 5 5 5 6 6 6 7 7 5 4 3 3 4 6 6 7 9 9 9 10 10 10 9 9 9 10 10 11 10 9 9 9 9 10 11 12 13 12 13 14 11 10 14 15 13 14 16 15 15 13 15 23 25 23 22 22 22 21 19 19 20 22 22 22 22 23 25 28 30 29 27
12 14 14 12 10 8 7 3 2 2 2 1 3 5 5 5 6 5 4 4 4 3 2 3 3 4 6 7 7 9 10 11 12 12 12 12 11 11 11 11 11 12 10 8 9 10 10 10 11 12 13 13 13 14 13 11 12 13 13 15 14 12 13 16 20 23 22 23 24 23 22 23 22 21 22 24 25 24 23 23 24 26 29 32 32
15 14 12 10 8 6 5 3 2 2 2 2 3 5 6 6 6 5 4 4 3 3 3 5 5 6 6 6 6 8 10 11 12 13 13 14 13 12 12 12 11 11 10 8 8 9 11 12 12 14 13 12 13 15 15 14 13 12 12 14 14 14 17 20 19 20 25 28 26 23 22 22 23 23 23 24 25 25 24 24 24 25 27 30 33
13 10 7 6 4 3 2 1 2 2 3 3 5 6 7 9 9 8 6 5 5 6 5 5 4 5 5 6 8 10 12 12 13 14 14 15 14 12 11 11 11 11 11 11 11 11 11 13 14 15 14 12 13 14 15 15 15 14 13 14 15 16 18 20 22 23 27 28 25 23 23 22 23 23 23 24 25 24 24 24 24 25 26 28 31
10 8 6 4 1 1 1 2 2 2 4 6 9 10 12 13 12 10 8 6 5 5 4 4 5 6 7 9 12 14 15 17 18 18 17 16 14 12 12 12 12 13 13 14 14 14 14 14 15 15 16 14 13 14 15 15 15 16 16 16 16 17 19 21 23 22 24 27 27 24 21 22 23 23 24 24 24 24 24 25 24 24 25 27 29
8 6 4 2 1 2 2 3 4 6 8 11 12 14 15 15 14 11 8 7 6 5 6 6 8 9 11 13 16 17 19 20 20 19 17 16 15 14 14 15 15 15 14 15 15 15 16 16 16 17 17 16 14 13 14 14 15 16 16 16 17 19 20 20 19 19 22 26 30 28 22 23 25 25 25 26 25 26 25 26 25 24 25 27 29
7 5 3 2 2 3 5 7 8 10 11 13 14 15 16 15 14 12 9 8 7 7 8 9 11 13 15 16 17 16 16 15 14 12 12 12 13 13 14 15 15 15 15 15 16 16 17 18 19 19 18 17 15 13 12 14 14 14 15 16 18 18 19 19 18 19 21 23 27 30 27 25 26 26 27 27 26 27 27 26 25 24 25 27 28
6 5 3 2 3 5 7 9 10 11 12 14 15 16 16 14 13 11 9 7 8 9 10 12 13 13 13 12 10 8 8 9 9 9 9 9 10 11 13 14 15 16 17 18 19 20 22 23 23 22 21 19 17 16 16 16 15 15 14 15 17 18 18 19 20 19 21 22 24 28 27 25 25 27 29 29 27 26 27 27 25 24 25 26 26
Wind_Direction
173 175 174 171 170 167 170 181 185 161 138 126 123 124 126 124 122 119 117 116 115 115 113 112 110 110 109 111 112 112 110 108 107 105 105 107 108 108 106 103 102 101 100 102 103 103 102 103 103 104 103 102 97 90 85 80 76 75 79 86 98 81 87 115 102 88 96 101 104 105 103 103 103 104 107 108 109 111 113 114 114 111 102 98 96
168 173 172 170 170 167 171 181 186 161 139 127 122 124 127 125 123 120 118 117 116 116 114 114 113 112 112 112 111 108 106 105 105 106 106 106 107 107 105 103 103 100 101 102 101 101 102 105 103 103 101 97 89 81 77 75 78 77 74 75 88 104 105 116 109 98 103 105 108 107 102 100 98 98 104 107 109 110 111 111 111 105 99 98 95
169 170 168 169 169 167 170 181 186 163 141 128 123 124 128 126 123 120 118 117 117 116 115 115 115 114 113 112 109 105 104 106 107 107 106 105 106 105 104 101 101 100 101 102 101 102 104 105 103 101 96 90 83 77 75 76 84 80 72 73 86 102 109 113 106 105 107 103 103 103 100 100 98 97 100 104 107 108 109 109 104 98 95 94 92
172 167 166 167 167 166 170 182 186 167 144 130 125 125 128 127 123 121 119 119 119 118 117 117 116 115 114 111 107 106 107 107 107 106 105 105 104 102 102 100 100 101 103 105 104 106 107 105 103 98 91 84 78 77 80 85 86 80 75 75 87 103 112 111 107 109 109 103 101 100 98 98 99 98 97 100 104 104 104 102 97 93 91 89 89
170 168 168 166 166 166 169 182 186 174 148 132 128 126 128 129 126 124 123 123 122 121 120 118 117 115 111 108 106 107 106 104 104 104 103 102 101 99 98 99 100 102 105 107 109 110 109 105 103 98 91 82 78 78 81 87 84 81 79 77 84 95 107 112 113 115 113 109 103 99 98 96 96 98 99 99 99 98 98 96 93 90 88 87 86
168 168 168 166 167 166 169 181 185 179 155 135 130 129 131 132 128 125 124 123 121 121 120 119 117 113 109 108 109 109 107 105 104 102 102 102 100 96 94 97 97 98 103 106 110 111 109 110 108 99 93 86 86 86 82 84 80 78 76 74 80 87 101 114 118 119 117 111 103 99 98 95 95 99 101 98 95 93 91 89 87 84 82 80 77
171 170 168 168 169 168 171 179 183 182 161 139 134 131 132 135 131 126 124 122 120 120 120 121 118 112 111 111 111 110 109 107 104 103 103 103 100 98 98 98 97 96 101 104 105 109 113 115 112 104 98 95 98 98 91 82 71 71 73 72 79 85 96 110 115 115 110 104 101 100 98 97 98 98 97 94 93 92 88 85 82 79 76 73 72
172 171 169 170 170 171 173 177 181 181 166 144 137 134 135 136 133 129 127 124 123 124 123 124 119 114 114 114 113 111 110 107 105 104 103 103 101 99 99 100 102 103 106 109 108 113 118 118 115 108 103 102 107 105 93 79 71 76 77 77 81 85 93 102 104 102 101 102 102 99 96 97 96 93 90 88 87 87 85 85 84 81 78 74 72
172 171 170 171 171 174 175 177 178 178 168 148 139 137 136 135 135 133 131 128 126 126 125 124 119 117 118 116 116 115 112 109 108 107 105 104 101 98 97 98 103 111 122 130 131 134 128 127 124 115 109 108 104 87 85 87 89 85 82 84 85 86 91 95 97 94 89 90 91 88 89 91 90 90 89 87 82 78 76 78 78 74 74 73 71
172 173 171 173 173 176 177 177 177 174 166 152 142 139 137 135 136 138 135 130 128 126 125 122 119 120 120 119 121 120 116 113 111 110 109 104 99 97 94 92 94 105 144 161 168 162 151 156 136 125 123 112 87 82 89 96 95 86 84 88 88 88 88 91 93 91 83 77 77 75 75 78 82 81 80 79 75 69 64 64 62 60 59 58 59
169 172 170 173 175 177 178 177 175 171 167 158 146 143 140 137 137 142 139 129 127 126 124 121 120 121 122 123 125 124 121 117 114 112 112 105 95 84 77 74 77 81 115 151 165 158 147 138 118 137 140 125 84 86 94 100 94 87 85 87 89 89 87 87 88 88 85 82 78 72 65 66 67 66 69 68 64 61 56 56 56 53 47 44 45
168 168 169 174 176 178 177 175 173 170 170 163 152 147 142 142 142 146 144 130 127 126 123 123 124 124 125 127 126 127 128 125 120 117 110 98 80 61 61 69 75 81 86 97 115 127 120 101 107 143 153 146 91 92 98 99 93 89 86 87 88 87 85 83 84 86 84 82 77 68 57 55 54 51 57 59 55 53 49 50 51 49 45 40 38
174 168 170 173 175 176 175 173 173 173 172 166 158 151 145 146 147 152 150 134 129 128 124 124 127 126 128 132 133 137 137 132 121 112 99 83 63 50 59 73 82 84 85 93 97 102 103 97 108 140 154 151 101 97 100 96 91 90 88 87 86 84 82 81 81 81 78 75 70 61 52 45 44 38 39 46 46 43 41 41 41 44 42 36 37
180 172 169 170 174 173 173 174 175 175 172 169 161 157 153 147 146 151 151 141 131 128 126 126 127 129 135 140 140 144 143 136 114 93 72 65 57 54 63 70 75 75 84 98 105 102 97 101 119 140 151 145 106 101 100 93 89 87 87 86 85 83 80 79 78 76 72 69 64 57 51 42 37 29 24 32 37 35 34 32 32 37 35 32 33
183 177 174 173 175 171 172 175 175 176 174 171 168 165 157 142 139 143 145 145 134 128 130 132 132 132 135 139 143 148 148 139 111 78 65 70 68 68 70 67 65 67 80 95 107 109 102 116 132 143 150 142 109 101 98 92 88 83 84 84 82 80 78 76 72 69 64 60 57 51 46 41 34 26 21 27 31 31 30 27 28 32 29 26 25
179 179 178 176 176 172 171 173 174 175 174 173 173 169 155 143 140 140 143 147 139 130 131 134 136 136 136 143 155 159 154 135 104 82 77 81 81 82 78 67 62 64 77 93 104 108 110 129 141 147 153 149 115 100 96 90 86 80 78 78 77 75 73 71 66 62 57 52 48 43 37 34 31 28 27 28 29 30 30 27 26 27 22 19 19
173 173 174 176 175 172 172 173 172 171 172 174 176 169 156 150 144 142 145 146 139 131 131 135 138 144 147 154 163 158 150 125 97 86 80 84 91 92 88 75 69 68 77 97 107 109 122 139 150 155 159 153 125 95 90 86 81 75 73 74 74 71 68 65 60 56 52 47 41 37 33 29 29 32 33 30 29 30 29 27 25 20 13 12 13
167 170 174 175 174 174 173 172 171 171 173 176 177 171 161 153 148 147 144 142 139 134 136 143 146 151 154 156 155 143 118 97 88 87 82 85 93 96 94 84 77 72 73 92 110 119 136 151 161 169 172 166 141 99 76 76 74 69 70 73 71 66 62 59 54 49 46 42 37 32 30 27 26 32 35 32 29 31 27 23 18 11 7 8 7
163 166 171 172 173 175 175 171 170 174 177 179 178 172 163 156 152 149 142 141 140 139 144 149 150 146 148 148 136 116 89 78 78 88 92 88 91 94 93 86 80 74 69 74 97 127 148 162 173 182 184 196 189 143 50 59 69 62 61 70 68 63 59 54 48 44 41 38 35 30 26 23 23 27 32 33 29 26 22 15 10 4 3 5 1
160 162 163 167 172 173 174 172 172 177 179 179 178 172 165 157 150 149 144 144 144 146 150 148 139 131 134 120 100 93 83 80 74 81 90 91 93 93 91 85 82 77 72 69 77 126 160 172 184 191 195 219 236 239 274 335 36 45 50 68 63 59 56 50 44 38 36 35 34 30 24 21 21 20 23 29 27 20 16 10 5 0 358 358 355
157 159 160 167 172 172 172 173 175 178 177 174 174 171 167 156 146 148 148 148 149 148 146 143 135 125 117 93 87 88 85 88 82 80 84 87 92 92 95 92 89 84 80 75 71 107 171 186 195 200 206 225 245 258 266 283 288 333 18 52 52 53 53 46 38 31 29 29 30 29 24 22 21 17 15 18 18 14 10 5 2 359 353 348 349
156 158 161 168 171 171 172 174 175 173 170 167 169 168 156 147 143 145 147 146 149 146 143 148 140 116 105 95 91 91 88 90 85 86 88 89 89 86 91 91 92 87 84 82 78 85 170 200 210 212 215 228 243 258 270 286 299 317 342 5 19 32 41 38 28 21 21 22 24 24 21 22 22 21 18 14 11 8 4 0 357 354 347 341 342
158 160 161 167 170 170 170 171 170 167 164 162 163 156 140 138 139 133 129 129 136 147 144 140 127 109 107 101 96 93 88 86 82 86 89 90 92 89 89 86 88 80 78 82 85 89 124 206 220 224 225 233 243 253 264 279 293 309 325 332 338 336 347 3 6 8 10 11 13 12 14 16 16 18 19 15 10 6 2 355 349 346 339 336 338
158 162 163 166 167 166 167 166 165 160 155 154 150 142 135 136 130 117 112 113 105 137 127 118 117 110 110 104 99 94 84 82 81 84 83 85 89 89 90 85 85 80 81 83 85 105 111 195 227 231 231 235 243 251 257 266 275 286 301 308 311 310 315 326 336 345 347 353 357 359 4 6 5 8 11 12 9 7 4 355 342 338 335 332 332
160 162 163 163 163 162 164 160 156 148 142 139 137 136 133 130 123 120 128 142 103 105 108 111 115 109 105 102 100 95 80 78 77 80 77 75 73 72 79 74 75 78 93 119 172 197 214 221 235 241 238 236 239 247 252 257 265 272 282 291 299 304 308 313 320 325 327 333 339 346 352 354 356 357 2 4 4 6 2 354 339 331 335 329 324
161 162 163 161 158 156 155 150 141 130 126 122 126 127 123 118 115 117 121 115 96 98 105 113 113 102 96 95 98 92 78 75 65 60 55 52 48 42 58 49 42 28 13 212 229 239 252 258 261 262 254 243 239 243 248 253 257 265 273 282 291 296 301 303 306 309 314 320 324 332 338 341 344 345 350 355 360 2 359 353 341 332 333 322 316
162 162 161 156 151 148 144 136 124 116 112 108 110 110 109 107 107 106 104 98 94 97 104 113 114 101 94 88 90 83 70 64 37 9 355 3 7 340 280 298 314 314 297 275 265 252 248 251 258 263 269 261 247 243 246 251 254 258 264 272 281 287 292 295 295 295 298 306 312 317 324 327 329 331 335 343 351 355 354 352 340 328 324 313 307
164 162 157 151 146 141 136 126 116 111 107 106 104 104 104 102 103 103 102 99 98 102 105 112 117 113 104 79 57 24 4 344 320 305 307 313 312 301 284 284 289 298 296 279 268 265 257 244 246 250 256 262 258 249 246 249 252 255 259 264 271 277 283 287 288 287 287 292 300 305 309 312 315 316 318 327 336 342 348 347 336 323 316 305 298
164 159 154 148 142 138 133 122 117 115 111 111 108 108 109 106 106 103 100 100 105 110 111 115 121 131 205 295 286 295 309 314 305 296 298 300 303 304 303 300 299 300 302 295 277 271 272 260 250 247 248 250 254 255 251 251 253 255 258 262 265 269 274 279 282 283 281 281 286 293 297 298 299 301 301 306 315 326 336 336 331 321 310 301 294
163 158 153 147 141 137 131 122 123 122 118 117 115 117 115 113 113 108 107 109 115 115 113 118 119 138 313 306 288 284 290 302 303 303 306 308 310 310 308 307 309 309 306 302 290 280 278 274 270 261 256 253 252 255 255 254 256 258 260 263 265 266 268 274 278 279 278 277 279 283 287 289 289 288 286 287 295 308 316 318 320 315 307 296 290
163 157 154 149 142 136 132 130 132 129 128 128 126 126 120 124 129 128 137 136 129 116 98 95 67 323 313 304 291 283 285 292 295 303 314 319 318 312 309 308 311 313 311 306 297 289 282 278 277 273 266 260 257 256 255 255 257 260 261 263 264 266 267 269 274 275 276 278 280 281 283 284 285 284 280 277 282 294 302 302 303 304 302 294 287
161 158 155 152 145 142 141 139 139 139 141 139 138 138 131 138 143 141 140 129 175 139 48 27 7 337 329 310 298 289 283 286 290 307 323 328 325 315 310 309 310 312 314 313 306 296 288 282 276 274 273 269 266 261 258 257 258 261 263 264 264 266 267 267 270 272 274 278 281 284 285 284 282 280 278 275 275 283 293 294 292 290 289 289 285
157 158 156 153 151 151 148 142 148 153 148 143 143 144 140 140 144 148 137 126 275 313 352 358 352 342 342 315 303 294 283 283 294 317 331 332 325 317 313 310 312 313 316 318 314 306 294 287 279 276 275 273 274 271 267 263 262 263 265 266 267 266 268 268 269 271 272 275 278 281 283 283 280 276 275 274 273 276 282 285 285 282 276 278 280
154 156 157 157 155 152 149 146 155 155 145 144 141 141 144 146 149 151 137 109 324 321 314 323 334 327 315 303 298 284 280 281 293 312 336 340 321 313 311 310 314 317 319 318 313 309 300 293 286 281 278 275 275 273 271 270 268 268 267 267 269 269 270 271 272 273 273 274 275 277 278 279 277 273 273 272 271 271 274 276 277 275 268 267 271
153 155 156 156 150 147 148 147 152 152 147 146 142 142 145 147 148 142 132 107 16 255 241 258 278 305 306 300 286 267 270 273 287 315 336 333 319 312 311 311 315 315 314 309 302 298 294 290 285 281 278 276 275 275 275 275 273 273 272 272 272 273 274 274 275 276 277 277 277 277 276 275 274 273 271 271 271 268 267 272 274 269 261 258 259
152 152 152 152 147 149 151 146 148 150 149 151 149 144 140 144 148 143 150 166 191 201 231 275 286 300 302 293 277 261 263 271 283 316 335 331 324 320 316 314 314 313 310 304 298 293 287 284 280 278 277 276 276 277 278 279 279 278 278 279 279 279 280 279 279 278 279 281 282 282 279 275 274 274 271 270 269 267 269 274 272 262 255 252 247
153 149 147 149 149 150 150 146 143 145 149 159 160 149 148 158 165 169 180 213 219 218 251 289 302 307 311 305 291 279 276 285 298 309 313 310 312 315 313 311 310 311 312 309 306 300 296 292 287 285 284 282 281 280 280 279 281 283 283 285 284 283 283 283 283 281 280 281 284 284 283 279 275 274 272 269 266 266 272 275 269 257 249 248 241
146 143 144 148 152 153 151 150 145 149 156 159 161 156 156 166 185 206 229 253 244 253 273 300 317 325 335 333 322 315 310 313 315 313 308 301 302 307 308 310 310 311 312 311 309 305 304 303 300 298 293 291 290 287 284 284 284 287 288 287 286 285 285 285 286 285 284 284 284 283 283 281 278 276 274 272 268 266 269 270 265 253 244 243 240
131 137 149 150 153 154 149 151 149 150 157 155 164 165 168 196 212 229 262 273 282 312 326 338 342 342 346 346 342 334 329 327 325 320 314 307 304 302 305 312 315 316 314 309 305 304 305 305 305 305 302 299 297 294 292 291 290 289 289 287 285 285 287 289 289 289 290 290 288 286 283 281 279 276 274 273 270 268 267 267 264 255 245 241 238
138 147 156 151 151 150 146 147 143 141 147 154 172 173 174 212 230 305 336 329 346 3 356 353 353 353 353 353 354 347 341 339 335 332 326 322 318 315 316 319 320 320 317 313 307 304 301 299 302 305 307 308 306 305 303 299 298 295 293 293 291 291 292 292 292 293 295 295 294 291 288 285 281 276 272 270 268 268 268 268 265 258 251 244 238
147 152 157 151 146 149 155 151 141 143 145 138 138 145 160 164 5 0 16 0 351 352 345 346 357 6 7 1 1 2 360 353 345 342 338 334 331 329 327 325 323 320 317 313 308 304 300 299 301 303 306 307 307 308 306 307 310 310 308 307 304 302 300 297 297 298 298 300 300 298 297 294 289 282 277 271 267 266 268 269 264 258 254 249 241
136 139 144 143 142 142 147 135 121 119 117 118 123 121 96 38 26 15 23 9 341 335 340 351 2 7 4 357 359 5 1 352 348 344 339 337 333 330 326 321 318 316 314 310 306 304 300 299 301 302 303 304 304 303 304 309 311 312 313 313 314 314 311 310 309 306 304 305 304 302 301 300 296 289 284 278 272 268 265 265 263 258 255 250 245
138 138 131 131 141 130 120 121 114 109 106 106 101 55 32 28 30 15 7 352 339 344 355 5 6 7 3 357 357 352 342 341 347 345 340 334 329 326 323 320 318 315 314 309 305 302 298 299 300 302 305 306 305 302 302 302 299 305 312 310 313 315 314 316 314 306 308 308 306 305 303 301 298 293 290 287 282 277 270 267 263 258 255 252 246
146 144 137 134 134 124 120 124 129 131 124 103 22 36 41 31 19 10 356 342 339 342 346 349 356 359 346 339 336 337 337 341 345 343 338 332 327 325 322 322 320 318 320 316 310 307 304 308 308 307 309 309 307 306 307 301 300 309 312 305 308 309 307 309 305 304 307 308 307 306 304 302 301 296 293 290 287 283 276 271 268 261 257 256 251
140 142 143 141 138 139 145 161 188 150 119 69 35 31 41 31 11 5 352 346 349 339 316 311 322 328 324 327 335 339 338 335 336 334 333 330 326 325 323 324 323 322 326 322 313 310 307 309 307 306 306 304 304 304 305 303 303 306 301 301 307 299 297 304 305 306 307 307 307 304 301 302 301 295 289 288 288 286 280 274 271 266 260 259 257
145 145 142 144 155 169 176 185 166 115 88 73 38 25 21 7 355 343 321 312 310 294 297 310 316 319 322 329 333 332 329 326 327 326 324 322 320 321 321 323 324 324 325 314 308 309 307 306 303 302 305 308 309 307 306 307 307 303 294 299 304 297 299 307 308 307 308 308 304 298 298 300 299 294 288 286 287 286 283 279 273 271 267 262 260
150 153 155 163 173 178 159 107 97 75 63 39 11 2 350 342 338 328 310 286 272 273 287 301 306 312 315 315 315 315 313 312 313 313 313 313 312 312 312 313 314 313 310 304 302 303 303 304 304 303 305 307 307 305 305 307 308 304 297 299 301 296 295 300 303 304 305 307 303 298 299 300 298 294 288 286 285 282 281 280 275 274 272 267 264
147 155 174 186 188 84 69 65 60 23 13 1 352 347 340 335 330 324 312 292 276 269 276 279 281 288 291 294 299 301 301 301 301 301 301 301 303 306 307 308 306 302 302 304 305 305 301 300 298 297 299 300 299 299 300 302 302 301 299 298 296 293 291 295 302 300 298 303 305 301 301 301 299 294 289 287 285 282 281 279 276 274 271 268 267
147 155 169 164 105 49 28 19 13 5 1 354 349 344 338 334 328 321 311 297 281 267 268 270 273 277 280 284 288 292 295 297 297 298 296 294 295 301 304 306 306 303 303 305 305 306 303 301 299 299 302 303 303 302 301 301 300 299 301 301 297 296 295 296 300 295 292 299 302 301 302 303 300 295 293 291 286 284 284 282 280 274 268 264 262
148 146 141 97 63 32 15 9 5 2 356 350 346 342 337 332 324 315 307 296 278 267 265 267 271 275 280 284 286 290 294 296 302 307 306 302 299 302 307 311 314 315 315 314 312 311 310 310 312 312 311 308 305 304 301 299 302 302 303 304 302 300 300 299 297 294 294 296 297 298 302 304 299 295 297 295 289 287 284 283 284 276 266 260 257
146 139 136 92 49 24 14 10 5 1 356 351 345 340 334 327 319 311 305 291 270 264 264 266 273 279 284 291 298 305 306 311 325 333 331 330 326 325 327 330 333 333 334 331 328 326 325 325 325 323 319 314 309 304 299 296 296 296 295 298 299 300 301 300 299 299 298 296 294 296 298 300 296 294 297 296 292 291 286 283 283 275 267 263 257